Dare County Gunnery Range, NC

3:26 PM EDT on July 24, 2017 (GMT -0400)
Dare County Gunnery Range

Weather History for K2DP - May, 2014

Change the Weather History Date:

Wednesday, May 14, 2014

  Actual Average (KMQI) Record (KMQI)
Temperature  
Mean Temperature 74 °F -  
Max Temperature 84 °F 71 °F 89 °F (1980)
Min Temperature 64 °F 58 °F 44 °F (2008)
Cooling Degree Days 8    
Growing Degree Days 24 (Base 50)    
Moisture  
Dew Point 66 °F    
Average Humidity 86    
Maximum Humidity 100    
Minimum Humidity 51    
Precipitation  
Precipitation 0.01 in - - ()
Sea Level Pressure  
Sea Level Pressure 30.17 in    
Wind  
Wind Speed 5 mph (SSW)    
Max Wind Speed 16 mph    
Max Gust Speed 22 mph    
Visibility 7 miles    
Events Fog    
Averages and records for this station are not official NWS values.
T = Trace of Precipitation, MM = Missing Value Source: NWS Daily Summary

Daily Weather History Graph

Daily Weather History Graph

Search for Another Location

Airport or City:

Trip Planner

Search our weather history database for the weather conditions in past years. The results will help you decide how hot, cold, wet, or windy it might be!

Date:

Astronomy

May. 14, 2014 Rise Set
Actual Time 5:59 AM EDT 8:00 PM EDT
Civil Twilight 5:31 AM EDT 8:29 PM EDT
Nautical Twilight 4:56 AM EDT 9:03 PM EDT
Astronomical Twilight 4:19 AM EDT 9:41 PM EDT
Moon 8:04 PM EDT (5/14) 5:54 AM EDT (5/14)
Length of Visible Light 14h 58m
Length of Day
14h 01m
Full, 100% of the Moon is Illuminated
May 14
Full
May 14
Full
May 21
Last Quarter
May 28
New
Jun 5
First Quarter

Hourly Weather History & Observations

Time (EDT) Temp. Heat Index Dew Point Humidity Pressure Visibility Wind Dir Wind Speed Gust Speed Precip Events Conditions
12:56 AM 68.9 °F - 66.2 °F 91% 30.17 in 12.0 mi SSW 4.6 mph - N/A   Clear
1:56 AM 66.9 °F - 65.3 °F 95% 30.16 in 8.0 mi SSW 5.8 mph - N/A   Clear
2:19 AM 66.2 °F - 64.4 °F 94% 30.15 in 4.0 mi SSW 5.8 mph - N/A   Clear
2:25 AM 66.2 °F - 64.4 °F 94% 30.15 in 5.0 mi SSW 5.8 mph - N/A   Clear
2:56 AM 67.1 °F - 66.0 °F 96% 30.15 in 9.0 mi South 4.6 mph - N/A   Clear
3:24 AM 66.2 °F - 64.4 °F 94% 30.15 in 5.0 mi WSW 1.2 mph - N/A   Clear
3:41 AM 66.2 °F - 64.4 °F 94% 30.15 in 4.0 mi SW 2.3 mph - N/A   Clear
3:47 AM 66.2 °F - 64.4 °F 94% 30.15 in 2.8 mi SSW 2.3 mph - N/A   Clear
3:53 AM 66.2 °F - 64.4 °F 94% 30.15 in 1.4 mi SSW 3.5 mph - N/A   Partly Cloudy
3:56 AM 66.2 °F - 64.9 °F 96% 30.16 in 1.4 mi SSW 3.5 mph - N/A   Partly Cloudy
4:07 AM 64.4 °F - 64.4 °F 100% 30.16 in 0.6 mi SW 4.6 mph - N/A Fog Fog
4:13 AM 64.4 °F - 64.4 °F 100% 30.16 in 0.5 mi SW 5.8 mph - N/A Fog Fog
4:19 AM 64.4 °F - 64.4 °F 100% 30.16 in 0.9 mi SW 6.9 mph - N/A Fog Fog
4:25 AM 66.2 °F - 64.4 °F 94% 30.16 in 11.0 mi SW 6.9 mph - N/A   Partly Cloudy
4:56 AM 67.8 °F - 66.7 °F 96% 30.16 in 12.0 mi WSW 5.8 mph - N/A   Clear
5:13 AM 66.2 °F - 64.4 °F 94% 30.17 in 3.0 mi SW 2.3 mph - N/A   Clear
5:18 AM 64.4 °F - 64.4 °F 100% 30.17 in 1.1 mi SSW 2.3 mph - N/A   Clear
5:24 AM 66.2 °F - 64.4 °F 94% 30.17 in 1.0 mi South 3.5 mph - N/A Fog Fog
5:29 AM 66.2 °F - 64.4 °F 94% 30.17 in 2.0 mi SSW 3.5 mph - N/A   Clear
5:35 AM 66.2 °F - 64.4 °F 94% 30.17 in 4.0 mi SSW 3.5 mph - N/A   Clear
5:45 AM 66.2 °F - 64.4 °F 94% 30.17 in 2.0 mi SSW 3.5 mph - N/A   Clear
5:50 AM 64.4 °F - 64.4 °F 100% 30.17 in 0.8 mi South 3.5 mph - N/A   Clear
5:56 AM 64.8 °F - 63.5 °F 96% 30.18 in 0.9 mi South 2.3 mph - N/A   Clear
6:07 AM 64.4 °F - 62.6 °F 94% 30.18 in 0.1 mi South 3.5 mph - N/A Fog Fog
6:56 AM 65.1 °F - 64.6 °F 98% 30.18 in 0.2 mi South 3.5 mph - 0.01 in Fog Fog
7:07 AM 66.2 °F - 66.2 °F 100% 30.19 in 4.0 mi South 3.5 mph - N/A   Scattered Clouds
7:13 AM 66.2 °F - 66.2 °F 100% 30.19 in 5.0 mi South 2.3 mph - N/A   Partly Cloudy
7:56 AM 70.7 °F - 69.6 °F 96% 30.20 in 12.0 mi SSW 4.6 mph - N/A   Clear
8:56 AM 76.5 °F - 67.6 °F 74% 30.21 in 12.0 mi Variable 5.8 mph - N/A   Clear
9:56 AM 79.0 °F - 67.3 °F 67% 30.21 in 12.0 mi SW 8.1 mph - N/A   Clear
10:56 AM 81.1 °F 83.7 °F 67.5 °F 63% 30.20 in 12.0 mi Variable 6.9 mph - N/A   Clear
11:56 AM 82.8 °F 84.5 °F 64.9 °F 55% 30.20 in 12.0 mi Variable 4.6 mph - N/A   Clear
12:56 PM 83.8 °F 87.5 °F 69.1 °F 61% 30.19 in 12.0 mi South 12.7 mph 17.3 mph N/A   Scattered Clouds
1:56 PM 83.8 °F 86.5 °F 67.1 °F 57% 30.18 in 12.0 mi South 12.7 mph 18.4 mph N/A   Clear
2:56 PM 82.9 °F 84.0 °F 63.1 °F 51% 30.18 in 12.0 mi South 15.0 mph 19.6 mph N/A   Clear
3:56 PM 82.4 °F 85.8 °F 69.3 °F 64% 30.16 in 12.0 mi South 11.5 mph 17.3 mph N/A   Clear
4:56 PM 80.6 °F 82.8 °F 66.6 °F 62% 30.16 in 12.0 mi South 15.0 mph - N/A   Clear
5:56 PM 79.3 °F - 66.7 °F 65% 30.15 in 12.0 mi South 16.1 mph 21.9 mph N/A   Clear
6:56 PM 77.7 °F - 67.6 °F 71% 30.15 in 12.0 mi South 12.7 mph - N/A   Partly Cloudy
7:56 PM 74.8 °F - 66.6 °F 75% 30.16 in 12.0 mi SSW 8.1 mph - N/A   Clear
8:56 PM 72.5 °F - 67.8 °F 85% 30.17 in 12.0 mi South 8.1 mph - N/A   Clear
9:56 PM 72.0 °F - 68.5 °F 89% 30.18 in 12.0 mi SSE 5.8 mph - N/A   Partly Cloudy
10:56 PM 72.7 °F - 69.3 °F 89% 30.18 in 12.0 mi South 5.8 mph - N/A   Partly Cloudy
11:56 PM 71.8 °F - 68.9 °F 91% 30.19 in 12.0 mi SW 4.6 mph - N/A   Mostly Cloudy